When you browse on this site, cookies collect data to enhance your experience and personalize the content and advertising you see.
Visit our Privacy Policy to learn more. By continuing to use the site, you agree to this use of cookies and data.
  • In Switzerland
  • List of Countries
  • For 7 days
  • Water Temperature
  • Weather Map
  • Weather Widgets
  • user-avatar
    Login

    Hourly Weather Benguela

    Today, 26 August, Monday

    Time Temperature Precipitation Wind Pressure Humidity
    00:00 +19°C° 0 mm 0 mps 762 mmHg 90%
    01:00 +19°C° 0 mm 0 mps 762 mmHg 88%
    02:00 +18°C° 0 mm 0 mps 762 mmHg 90%
    03:00 +18°C° 0 mm 0 mps 762 mmHg 91%
    04:00 +17°C° 0 mm 0 mps 762 mmHg 92%
    05:00 +20°C° 0 mm 1 mps 762 mmHg 88%
    06:00 +21°C° 0 mm 1 mps 763 mmHg 85%
    07:00 +21°C° 0 mm 1 mps 763 mmHg 81%
    08:00 +24°C° 0 mm 1 mps 763 mmHg 72%
    09:00 +26°C° 0 mm 2 mps 763 mmHg 63%
    10:00 +28°C° 0 mm 2 mps 763 mmHg 54%
    11:00 +28°C° 0 mm 3 mps 762 mmHg 53%
    12:00 +29°C° 0 mm 3 mps 761 mmHg 51%
    13:00 +30°C° 0 mm 4 mps 760 mmHg 50%
    14:00 +29°C° 0 mm 4 mps 760 mmHg 53%
    15:00 +29°C° 0 mm 3 mps 759 mmHg 55%
    16:00 +28°C° 0 mm 3 mps 759 mmHg 57%
    17:00 +26°C° 0 mm 3 mps 759 mmHg 67%
    18:00 +24°C° 0 mm 2 mps 760 mmHg 76%
    19:00 +21°C° 0 mm 2 mps 761 mmHg 86%
    20:00 +21°C° 0 mm 2 mps 761 mmHg 88%
    21:00 +20°C° 0 mm 2 mps 762 mmHg 90%
    22:00 +20°C° 0 mm 2 mps 762 mmHg 92%
    23:00 +19°C° 0 mm 2 mps 762 mmHg 91%

    Tomorrow, 27 August, Tuesday

    Time Temperature Precipitation Wind Pressure Humidity
    00:00 +19°C° 0 mm 2 mps 762 mmHg 91%
    01:00 +19°C° 0 mm 2 mps 762 mmHg 91%
    02:00 +20°C° 0 mm 1 mps 761 mmHg 91%
    03:00 +19°C° 0 mm 1 mps 761 mmHg 90%
    04:00 +19°C° 0 mm 1 mps 761 mmHg 90%
    05:00 +20°C° 0 mm 1 mps 761 mmHg 85%
    06:00 +21°C° 0 mm 1 mps 761 mmHg 81%
    07:00 +22°C° 0 mm 1 mps 762 mmHg 77%
    08:00 +25°C° 0 mm 1 mps 762 mmHg 66%
    09:00 +28°C° 0 mm 2 mps 761 mmHg 54%
    10:00 +31°C° 0 mm 2 mps 761 mmHg 43%
    11:00 +30°C° 0 mm 3 mps 760 mmHg 45%
    12:00 +30°C° 0 mm 4 mps 760 mmHg 47%
    13:00 +30°C° 0 mm 4 mps 759 mmHg 50%
    14:00 +30°C° 0 mm 4 mps 759 mmHg 52%
    15:00 +29°C° 0 mm 4 mps 758 mmHg 54%
    16:00 +28°C° 0 mm 3 mps 758 mmHg 57%
    17:00 +26°C° 0 mm 3 mps 758 mmHg 68%
    18:00 +24°C° 0 mm 2 mps 759 mmHg 79%
    19:00 +21°C° 0 mm 1 mps 760 mmHg 91%
    20:00 +21°C° 0 mm 1 mps 760 mmHg 92%
    21:00 +20°C° 0 mm 1 mps 760 mmHg 93%
    22:00 +20°C° 0 mm 1 mps 761 mmHg 94%
    23:00 +20°C° 0 mm 1 mps 760 mmHg 93%

    Day after tomorrow, 28 August, Wednesday

    Time Temperature Precipitation Wind Pressure Humidity
    00:00 +19°C° 0 mm 1 mps 760 mmHg 92%
    01:00 +19°C° 0 mm 1 mps 760 mmHg 91%
    02:00 +19°C° 0 mm 1 mps 760 mmHg 92%
    03:00 +17°C° 0 mm 0 mps 759 mmHg 93%
    04:00 +17°C° 0 mm 0 mps 759 mmHg 94%
    05:00 +20°C° 0 mm 1 mps 760 mmHg 90%
    06:00 +20°C° 0 mm 1 mps 760 mmHg 87%
    07:00 +21°C° 0 mm 1 mps 761 mmHg 84%
    08:00 +23°C° 0 mm 2 mps 761 mmHg 75%
    09:00 +25°C° 0 mm 2 mps 760 mmHg 66%
    10:00 +28°C° 0 mm 3 mps 760 mmHg 57%
    11:00 +28°C° 0 mm 3 mps 759 mmHg 56%
    12:00 +29°C° 0 mm 4 mps 759 mmHg 55%
    13:00 +29°C° 0 mm 4 mps 758 mmHg 54%
    14:00 +28°C° 0 mm 4 mps 757 mmHg 57%
    15:00 +27°C° 0 mm 3 mps 757 mmHg 60%
    16:00 +26°C° 0 mm 3 mps 756 mmHg 63%
    17:00 +25°C° 0 mm 2 mps 757 mmHg 71%
    18:00 +23°C° 0 mm 2 mps 758 mmHg 80%
    19:00 +21°C° 0 mm 1 mps 759 mmHg 89%
    20:00 +21°C° 0 mm 1 mps 759 mmHg 87%
    21:00 +22°C° 0 mm 1 mps 760 mmHg 86%
    22:00 +22°C° 0 mm 1 mps 760 mmHg 85%
    23:00 +21°C° 0 mm 1 mps 760 mmHg 87%

    29 August, Thursday

    Time Temperature Precipitation Wind Pressure Humidity
    00:00 +20°C° 0 mm 1 mps 760 mmHg 90%
    01:00 +19°C° 0 mm 1 mps 760 mmHg 92%
    02:00 +19°C° 0 mm 1 mps 760 mmHg 92%
    03:00 +19°C° 0 mm 1 mps 760 mmHg 92%
    04:00 +19°C° 0 mm 1 mps 760 mmHg 92%
    05:00 +19°C° 0 mm 1 mps 760 mmHg 89%
    06:00 +19°C° 0 mm 2 mps 761 mmHg 87%
    07:00 +20°C° 0 mm 2 mps 761 mmHg 84%
    08:00 +23°C° 0 mm 2 mps 761 mmHg 75%
    09:00 +25°C° 0 mm 2 mps 761 mmHg 66%
    10:00 +27°C° 0 mm 2 mps 761 mmHg 57%
    11:00 +28°C° 0 mm 3 mps 760 mmHg 56%
    12:00 +28°C° 0 mm 4 mps 759 mmHg 56%
    13:00 +28°C° 0 mm 4 mps 758 mmHg 55%
    14:00 +28°C° 0 mm 4 mps 758 mmHg 58%
    15:00 +27°C° 0 mm 4 mps 757 mmHg 60%
    16:00 +26°C° 0 mm 3 mps 757 mmHg 63%
    17:00 +25°C° 0 mm 3 mps 758 mmHg 69%
    18:00 +24°C° 0 mm 2 mps 758 mmHg 75%
    19:00 +23°C° 0 mm 1 mps 759 mmHg 81%
    20:00 +23°C° 0 mm 1 mps 760 mmHg 80%
    21:00 +23°C° 0 mm 1 mps 760 mmHg 80%
    22:00 +21°C° 0 mm 0 mps 761 mmHg 79%
    23:00 +20°C° 0 mm 0 mps 761 mmHg 81%

    30 August, Friday

    Time Temperature Precipitation Wind Pressure Humidity
    00:00 +20°C° 0 mm 0 mps 760 mmHg 82%
    01:00 +21°C° 0 mm 1 mps 760 mmHg 84%
    02:00 +21°C° 0 mm 1 mps 760 mmHg 86%
    03:00 +20°C° 0 mm 1 mps 760 mmHg 88%
    04:00 +19°C° 0 mm 1 mps 760 mmHg 91%
    05:00 +20°C° 0 mm 1 mps 760 mmHg 88%
    06:00 +21°C° 0 mm 1 mps 761 mmHg 85%
    07:00 +22°C° 0 mm 1 mps 761 mmHg 83%
    08:00 +23°C° 0 mm 1 mps 761 mmHg 78%
    09:00 +23°C° 0 mm 2 mps 761 mmHg 73%
    10:00 +24°C° 0 mm 2 mps 761 mmHg 68%
    11:00 +26°C° 0 mm 3 mps 760 mmHg 63%
    12:00 +27°C° 0 mm 3 mps 759 mmHg 58%
    13:00 +28°C° 0 mm 4 mps 759 mmHg 53%
    14:00 +28°C° 0 mm 4 mps 758 mmHg 55%
    15:00 +27°C° 0 mm 4 mps 758 mmHg 58%
    16:00 +27°C° 0 mm 4 mps 758 mmHg 60%
    17:00 +25°C° 0 mm 4 mps 758 mmHg 69%
    18:00 +22°C° 0 mm 3 mps 759 mmHg 79%
    19:00 +20°C° 0 mm 3 mps 759 mmHg 88%
    20:00 +19°C° 0 mm 3 mps 760 mmHg 89%
    21:00 +19°C° 0 mm 2 mps 760 mmHg 89%
    22:00 +19°C° 0 mm 2 mps 761 mmHg 89%
    23:00 +19°C° 0 mm 2 mps 760 mmHg 89%

    31 August, Saturday

    Time Temperature Precipitation Wind Pressure Humidity
    00:00 +20°C° 0 mm 1 mps 760 mmHg 88%
    01:00 +20°C° 0 mm 1 mps 760 mmHg 88%
    02:00 +19°C° 0 mm 1 mps 760 mmHg 90%
    03:00 +18°C° 0 mm 1 mps 760 mmHg 92%
    04:00 +18°C° 0 mm 1 mps 759 mmHg 94%
    05:00 +19°C° 0 mm 1 mps 760 mmHg 91%
    06:00 +19°C° 0 mm 1 mps 760 mmHg 89%
    07:00 +20°C° 0 mm 1 mps 761 mmHg 87%
    08:00 +21°C° 0 mm 1 mps 760 mmHg 79%
    09:00 +23°C° 0 mm 2 mps 760 mmHg 72%
    10:00 +24°C° 0 mm 2 mps 760 mmHg 65%
    11:00 +25°C° 0 mm 3 mps 759 mmHg 60%
    12:00 +26°C° 0 mm 4 mps 758 mmHg 56%
    13:00 +27°C° 0 mm 4 mps 757 mmHg 52%
    14:00 +26°C° 0 mm 4 mps 757 mmHg 54%
    15:00 +26°C° 0 mm 4 mps 757 mmHg 57%
    16:00 +25°C° 0 mm 4 mps 757 mmHg 59%
    17:00 +22°C° 0 mm 3 mps 757 mmHg 67%
    18:00 +21°C° 0 mm 2 mps 758 mmHg 75%
    19:00 +19°C° 0 mm 2 mps 759 mmHg 83%
    20:00 +20°C° 0 mm 1 mps 760 mmHg 82%
    21:00 +18°C° 0 mm 0 mps 760 mmHg 81%
    22:00 +19°C° 0 mm 0 mps 761 mmHg 80%
    23:00 +18°C° 0 mm 0 mps 760 mmHg 81%
    Show more